Location: TAAA CAC
(31.8680°N, 109.5150°W)
Time: 21:26:01
(UTC-07:00)

BlueWalker 3 - Pass Details

Date: 13 March 2026
Orbit: 449 x 457 km, 53.2° (Epoch: 20 April)

Event Time Altitude Azimuth Distance (km) Brightness Sun altitude
Rises 05:40:10 0° 336° (NNW) 2,471 5.2 -11.5°
Reaches altitude 10° 05:43:22 10° 7° (N) 1,593 4.6 -10.8°
Maximum altitude 05:44:59 13° 33° (NNE) 1,442 4.8 -10.5°
Drops below altitude 10° 05:46:36 10° 60° (ENE) 1,588 5.6 -10.2°
Sets 05:49:47 0° 91° (E) 2,456 7.8 -9.5°
